KA1STV Weather Reports


time (UTC)temp
C
wind
direction
speed
KPH
gust
KPH
rain 1hr
cm
rain 24hr
cm
rain mn
cm
humidity
%
barometer
mb
20260502130520 9 71 3.2 3.2 0.00 0.69 0.69 99 1011.1
20260502123503 8 35 0.0 0.0 0.00 0.69 0.69 99 1011.2
20260502122959 7 36 0.0 0.0 0.00 0.69 0.69 99 1011.2
20260502122455 7 33 0.0 0.0 0.00 0.69 0.69 99 1011.1
20260502121954 7 45 0.0 1.6 0.00 0.69 0.69 99 1011.1
20260502121451 7 15 0.0 0.0 0.00 0.69 0.69 99 1011.3
20260502120948 7 21 0.0 0.0 0.00 0.69 0.69 99 1011.5
20260502120444 7 3 0.0 0.0 0.00 0.69 0.69 99 1011.0
20260502115439 7 31 0.0 0.0 0.00 0.69 0.69 99 1011.2
20260502114935 7 17 0.0 0.0 0.18 0.69 0.69 99 1011.0
20260502114432 7 28 0.0 0.0 0.18 0.69 0.69 99 1011.3
20260502113929 7 26 0.0 0.0 0.00 0.66 0.66 99 1011.1
20260502113426 7 70 1.6 3.2 0.13 0.66 0.66 99 1011.1
20260502112925 7 38 0.0 0.0 0.18 0.64 0.64 99 1011.5
20260502112422 7 23 0.0 0.0 0.36 0.64 0.64 99 1011.4
20260502111920 7 14 0.0 0.0 0.18 0.61 0.61 99 1011.6
20260502111417 7 14 0.0 0.0 0.00 0.58 0.58 99 1011.5
20260502110914 7 346 0.0 0.0 0.00 0.58 0.58 99 1011.7
20260502110412 7 8 0.0 0.0 0.00 0.58 0.58 99 1011.5
20260502105909 7 9 0.0 0.0 0.13 0.58 0.58 99 1011.5
20260502105406 7 9 0.0 0.0 0.13 0.58 0.58 99 1011.2
20260502104904 7 17 0.0 0.0 0.00 0.56 0.56 99 1011.3
20260502104401 7 25 0.0 0.0 0.00 0.56 0.56 99 1010.9
20260502103858 7 53 1.6 1.6 0.00 0.56 0.56 99 1010.8
20260502103355 7 34 1.6 1.6 0.00 0.56 0.56 99 1010.5
20260502102852 7 31 0.0 0.0 0.30 0.56 0.56 99 1010.8
20260502102349 7 9 0.0 0.0 0.61 0.56 0.56 99 1011.2
20260502101846 7 89 3.2 4.8 0.89 0.51 0.51 99 1011.2
20260502101344 7 40 0.0 0.0 0.89 0.46 0.46 99 1011.1
20260502100842 7 33 0.0 0.0 0.79 0.38 0.38 99 1011.3
20260502100342 7 53 1.6 1.6 0.66 0.30 0.30 99 1011.3
20260502091315 7 24 0.0 0.0 0.00 0.18 0.18 99 1010.7
20260502090813 7 24 0.0 0.0 0.00 0.18 0.18 99 1010.3
20260502090309 7 25 1.6 1.6 0.00 0.18 0.18 98 1010.4
20260502071204 7 27 0.0 0.0 0.00 0.03 0.03 92 1010.5
20260502070703 7 52 1.6 1.6 0.18 0.03 0.03 92 1010.7
20260502070200 8 31 0.0 1.6 0.18 0.03 0.03 89 1010.8
20260502065659 8 27 0.0 0.0 0.00 0.00 0.00 88 1010.8
20260502065156 8 25 0.0 0.0 0.00 0.00 0.00 84 1010.7
20260502064654 8 38 1.6 3.2 0.00 0.00 0.00 83 1010.7
20260502064151 8 10 0.0 0.0 0.00 0.00 0.00 82 1011.0
20260502063649 8 353 0.0 1.6 0.00 0.00 0.00 81 1010.9
20260502063147 8 0 0.0 1.6 0.00 0.00 0.00 83 1010.7
20260502062643 8 341 1.6 1.6 0.00 0.00 0.00 82 1010.8
20260502062141 8 3 0.0 1.6 0.00 0.00 0.00 81 1010.5
20260502061639 8 2 1.6 1.6 0.00 0.00 0.00 80 1010.7
20260502061136 8 14 0.0 0.0 0.00 0.00 0.00 81 1010.2
20260502060631 8 9 0.0 1.6 0.00 0.00 0.00 81 1010.5
20260502060128 8 4 0.0 1.6 0.00 0.00 0.00 81 1010.5
20260502055626 8 16 0.0 0.0 0.00 0.00 0.00 77 1010.7
20260502055123 8 19 1.6 1.6 0.00 0.00 0.00 80 1010.5
20260502054622 8 88 3.2 3.2 0.00 0.00 0.00 78 1010.8
20260502054119 9 40 1.6 1.6 0.00 0.00 0.00 78 1010.9
20260502053616 9 104 3.2 3.2 0.00 0.00 0.00 81 1010.9
20260502053113 8 45 1.6 1.6 0.00 0.00 0.00 83 1010.7
20260502052612 8 358 0.0 0.0 0.00 0.00 0.00 83 1010.9
20260502052110 9 348 1.6 1.6 0.00 0.00 0.00 80 1011.2
20260502051608 9 309 1.6 1.6 0.00 0.00 0.00 79 1011.1
20260502051105 9 19 0.0 0.0 0.00 0.00 0.00 72 1011.1
20260502050601 9 37 0.0 1.6 0.00 0.00 0.00 78 1010.9
20260502050058 9 5 0.0 0.0 0.00 0.00 0.00 81 1011.1
20260502045554 10 345 1.6 1.6 0.00 0.00 0.00 78 1011.0
20260502045052 10 6 0.0 0.0 0.00 0.00 0.00 75 1010.8
20260502044548 10 354 1.6 1.6 0.00 0.00 0.00 70 1010.9
20260502044045 10 18 0.0 0.0 0.00 0.00 0.00 70 1011.0
20260502043543 10 14 0.0 0.0 0.00 0.00 0.00 65 1010.9
20260502043039 10 339 1.6 1.6 0.00 0.00 0.00 67 1010.8
20260502042534 10 340 1.6 1.6 0.00 0.00 0.00 67 1010.5
20260502042032 10 340 1.6 1.6 0.00 0.00 0.00 70 1010.7
20260502041529 10 356 1.6 1.6 0.00 0.00 0.00 71 1010.4
20260502041026 10 3 0.0 0.0 0.00 0.00 0.00 66 1010.5
20260502040522 10 3 0.0 0.0 0.00 0.00 0.00 66 1010.4
20260502040020 10 2 1.6 1.6 0.00 0.00 0.00 62 1010.8
20260502035515 10 3 0.0 1.6 0.00 0.00 0.00 65 1010.5
20260502035013 10 3 0.0 0.0 0.00 0.00 0.00 66 1010.8
20260502034511 10 4 0.0 0.0 0.00 0.00 0.00 68 1010.8
20260502034009 10 352 1.6 1.6 0.00 0.00 0.00 68 1010.7
20260502033507 10 1 1.6 1.6 0.00 0.00 0.00 66 1010.8
20260502033004 10 6 0.0 0.0 0.00 0.00 0.00 64 1010.8
20260502032500 10 6 0.0 0.0 0.00 0.00 0.00 62 1010.7
20260502031956 11 5 0.0 1.6 0.00 0.00 0.00 60 1010.8
20260502031455 11 358 0.0 1.6 0.00 0.00 0.00 60 1010.8
20260502030953 11 9 0.0 0.0 0.00 0.00 0.00 68 1011.0
20260502030451 11 9 0.0 0.0 0.00 0.00 0.00 65 1011.0
20260502025948 11 357 1.6 1.6 0.00 0.00 0.00 63 1011.0
20260502025445 11 341 1.6 1.6 0.00 0.00 0.00 61 1010.9
20260502024943 11 34 0.0 0.0 0.00 0.00 0.00 65 1011.0
20260502024441 11 116 3.2 3.2 0.00 0.00 0.00 59 1010.8
20260502023939 11 56 1.6 1.6 0.00 0.00 0.00 54 1010.7
20260502023436 12 12 0.0 1.6 0.00 0.00 0.00 52 1010.4
20260502022934 12 348 3.2 3.2 0.00 0.00 0.00 52 1010.4
20260502022430 12 340 3.2 3.2 0.00 0.00 0.00 51 1010.4
20260502021927 12 345 1.6 1.6 0.00 0.00 0.00 51 1010.5
20260502021424 12 332 3.2 3.2 0.00 0.00 0.00 51 1010.8
20260502020921 12 335 3.2 3.2 0.00 0.00 0.00 51 1010.7
20260502020420 12 344 3.2 3.2 0.00 0.00 0.00 51 1010.4
20260502015915 12 5 1.6 1.6 0.00 0.00 0.00 51 1010.8
20260502015413 12 358 1.6 1.6 0.00 0.00 0.00 50 1010.7
20260502014910 12 353 1.6 1.6 0.00 0.00 0.00 48 1010.8
20260502014407 12 347 3.2 3.2 0.00 0.00 0.00 50 1010.4
20260502013903 12 347 1.6 3.2 0.00 0.00 0.00 51 1010.9
20260502013358 12 337 3.2 3.2 0.00 0.00 0.00 51 1010.7
20260502012855 12 332 1.6 3.2 0.00 0.00 0.00 53 1010.7
20260502012354 12 348 1.6 1.6 0.00 0.00 0.00 56 1010.5
20260502011851 12 356 1.6 1.6 0.00 0.00 0.00 53 1010.3
20260502011346 11 352 1.6 1.6 0.00 0.00 0.00 52 1010.3
20260502010844 11 3 0.0 1.6 0.00 0.00 0.00 53 1010.4
20260502010340 11 3 0.0 1.6 0.00 0.00 0.00 56 1010.2
20260502005837 11 3 0.0 1.6 0.00 0.00 0.00 59 1010.3
20260502005335 11 4 0.0 0.0 0.00 0.00 0.00 63 1010.3
20260502004832 11 4 0.0 0.0 0.00 0.00 0.00 64 1010.1
20260502004328 11 3 0.0 0.0 0.00 0.00 0.00 57 1010.0
20260502003826 11 4 0.0 0.0 0.00 0.00 0.00 59 1010.0
20260502003323 11 4 0.0 0.0 0.00 0.00 0.00 58 1009.9
20260502002819 11 4 0.0 0.0 0.00 0.00 0.00 64 1010.1
20260502002317 11 4 0.0 0.0 0.00 0.00 0.00 59 1009.9
20260502001814 11 3 0.0 1.6 0.00 0.00 0.00 61 1009.8
20260502001312 11 6 0.0 1.6 0.00 0.00 0.00 59 1009.5
20260502000809 11 5 0.0 1.6 0.00 0.00 0.00 57 1009.6
20260502000307 11 8 0.0 1.6 0.00 0.00 0.00 51 1009.7
20260501235802 12 10 0.0 0.0 0.00 0.00 0.00 52 1009.4
20260501235258 12 8 0.0 1.6 0.00 0.00 0.00 50 1009.3
20260501234754 12 10 0.0 1.6 0.00 0.00 0.00 50 1009.3
20260501234251 12 11 0.0 0.0 0.00 0.00 0.00 49 1009.2
20260501233750 13 4 0.0 0.0 0.00 0.00 0.00 51 1009.1
20260501233247 13 3 0.0 0.0 0.00 0.00 0.00 48 1009.2
20260501232742 13 347 1.6 1.6 0.00 0.00 0.00 44 1008.9
20260501232239 13 7 0.0 0.0 0.00 0.00 0.00 43 1009.0
20260501231737 14 8 0.0 0.0 0.00 0.00 0.00 44 1008.9
20260501231235 14 11 0.0 0.0 0.00 0.00 0.00 42 1009.0
20260501230733 14 3 0.0 1.6 0.00 0.00 0.00 41 1008.9
20260501230231 14 7 0.0 0.0 0.00 0.00 0.00 42 1008.9
20260501225729 14 355 1.6 1.6 0.00 0.00 0.00 42 1008.7
20260501225226 14 344 1.6 1.6 0.00 0.00 0.00 42 1008.7
20260501224722 15 6 0.0 0.0 0.00 0.00 0.00 43 1008.8
20260501224220 15 359 0.0 1.6 0.00 0.00 0.00 48 1008.8
20260501223715 15 341 3.2 3.2 0.00 0.00 0.00 39 1008.8
20260501223212 15 346 1.6 3.2 0.00 0.00 0.00 42 1008.6
20260501222708 15 103 3.2 3.2 0.00 0.00 0.00 37 1008.5
20260501222206 15 343 1.6 1.6 0.00 0.00 0.00 39 1008.6
20260501221702 16 21 1.6 1.6 0.00 0.00 0.00 39 1008.5
20260501221159 16 3 0.0 1.6 0.00 0.00 0.00 38 1008.5
20260501220657 16 352 1.6 3.2 0.00 0.00 0.00 36 1008.7
20260501220154 15 327 1.6 1.6 0.00 0.00 0.00 36 1008.5
20260501215651 15 20 0.0 1.6 0.00 0.00 0.00 36 1008.7
20260501215146 15 24 0.0 0.0 0.00 0.00 0.00 41 1008.7
20260501214641 15 342 3.2 3.2 0.00 0.00 0.00 39 1008.7
20260501214137 15 327 3.2 3.2 0.00 0.00 0.00 40 1008.6
20260501213634 16 8 0.0 1.6 0.00 0.00 0.00 38 1008.6
20260501213130 16 19 1.6 1.6 0.00 0.00 0.00 36 1008.4
20260501212627 16 341 1.6 3.2 0.00 0.00 0.00 38 1008.5
20260501212123 16 342 3.2 3.2 0.00 0.00 0.00 39 1008.6
20260501211620 16 323 4.8 4.8 0.00 0.00 0.00 38 1008.6
20260501211118 16 254 4.8 4.8 0.00 0.00 0.00 35 1008.5
20260501210615 16 339 3.2 3.2 0.00 0.00 0.00 35 1008.4
20260501210111 16 344 3.2 4.8 0.00 0.00 0.00 37 1008.5
20260501205608 16 294 4.8 4.8 0.00 0.00 0.00 37 1008.5
20260501205105 16 16 0.0 0.0 0.00 0.00 0.00 38 1008.7
20260501204602 16 16 3.2 4.8 0.00 0.00 0.00 39 1008.6
20260501204057 16 325 4.8 8.0 0.00 0.00 0.00 36 1008.5
20260501203554 16 320 3.2 4.8 0.00 0.00 0.00 35 1008.6
20260501203052 16 316 4.8 8.0 0.00 0.00 0.00 36 1008.4
20260501202549 16 9 1.6 1.6 0.00 0.00 0.00 38 1008.4
20260501202045 16 279 8.0 9.7 0.00 0.00 0.00 36 1008.4
20260501201543 16 341 3.2 3.2 0.00 0.00 0.00 36 1008.5
20260501201039 16 347 3.2 3.2 0.00 0.00 0.00 37 1008.6
20260501200536 16 20 4.8 8.0 0.00 0.00 0.00 34 1008.7
20260501200033 16 313 1.6 4.8 0.00 0.00 0.00 37 1008.6
20260501195531 15 349 3.2 3.2 0.00 0.00 0.00 39 1008.6
20260501195026 15 343 1.6 1.6 0.00 0.00 0.00 36 1008.6
20260501194522 15 6 3.2 4.8 0.00 0.00 0.00 36 1008.7
20260501194018 15 10 1.6 1.6 0.00 0.00 0.00 37 1008.5
20260501193516 15 5 3.2 3.2 0.00 0.00 0.00 40 1008.6
20260501193014 15 9 1.6 1.6 0.00 0.00 0.00 38 1008.8
20260501192510 15 332 4.8 4.8 0.00 0.00 0.00 39 1008.8
20260501192009 15 23 1.6 1.6 0.00 0.00 0.00 37 1009.0
20260501191505 15 2 3.2 4.8 0.00 0.00 0.00 40 1008.8
20260501191002 15 340 6.4 8.0 0.00 0.00 0.00 40 1009.0
20260501190457 15 10 4.8 4.8 0.00 0.00 0.00 39 1009.1
20260501185953 15 26 4.8 8.0 0.00 0.00 0.00 41 1009.1
20260501185449 15 26 1.6 3.2 0.00 0.00 0.00 36 1008.9
20260501184946 15 350 1.6 1.6 0.00 0.00 0.00 43 1009.2
20260501184442 14 318 4.8 4.8 0.00 0.00 0.00 42 1009.3
20260501183937 15 359 3.2 3.2 0.00 0.00 0.00 40 1009.6
20260501183434 15 338 4.8 4.8 0.00 0.00 0.00 41 1009.4
20260501182931 15 5 1.6 1.6 0.00 0.00 0.00 42 1009.3
20260501182427 14 352 4.8 8.0 0.00 0.00 0.00 40 1009.5
20260501181924 14 344 3.2 3.2 0.00 0.00 0.00 43 1009.6
20260501181421 14 358 1.6 1.6 0.00 0.00 0.00 40 1009.7
20260501180918 14 305 6.4 8.0 0.00 0.00 0.00 41 1009.6
20260501180415 13 353 1.6 3.2 0.00 0.00 0.00 38 1009.5
20260501175911 14 245 8.0 9.7 0.00 0.00 0.00 40 1009.6
20260501175409 13 357 3.2 3.2 0.00 0.00 0.00 38 1009.4
20260501174905 13 26 3.2 3.2 0.00 0.00 0.00 40 1009.8
20260501174403 13 315 6.4 8.0 0.00 0.00 0.00 41 1009.6
20260501173900 15 327 3.2 4.8 0.00 0.00 0.00 39 1009.6
20260501173358 15 356 3.2 3.2 0.00 0.00 0.00 42 1009.5
20260501172853 14 312 3.2 3.2 0.00 0.00 0.00 39 1009.7
20260501172348 13 312 3.2 3.2 0.00 0.00 0.00 40 1009.5
20260501171844 13 301 6.4 9.7 0.00 0.00 0.00 42 1009.6
20260501171341 14 244 6.4 8.0 0.00 0.00 0.00 39 1009.4
20260501170838 15 260 4.8 4.8 0.00 0.00 0.00 39 1009.7
20260501170335 14 225 3.2 3.2 0.00 0.00 0.00 41 1009.6
20260501165832 13 332 4.8 4.8 0.00 0.00 0.00 40 1009.6
20260501165330 15 292 1.6 3.2 0.00 0.00 0.00 42 1009.6
20260501164828 14 300 4.8 4.8 0.00 0.00 0.00 38 1009.8
20260501164326 14 298 4.8 4.8 0.00 0.00 0.00 40 1009.4
20260501163821 14 233 6.4 8.0 0.00 0.00 0.00 38 1009.7
20260501163318 14 264 3.2 3.2 0.00 0.00 0.00 37 1009.8
20260501162815 14 316 3.2 3.2 0.00 0.00 0.00 41 1009.5
20260501162311 13 319 4.8 4.8 0.00 0.00 0.00 41 1009.7
20260501161809 13 261 8.0 9.7 0.00 0.00 0.00 41 1009.7
20260501161305 13 334 1.6 3.2 0.00 0.00 0.00 45 1009.8
20260501160801 13 321 4.8 8.0 0.00 0.00 0.00 41 1009.8
20260501160258 14 4 6.4 8.0 0.00 0.00 0.00 42 1009.8
20260501155756 14 188 3.2 4.8 0.00 0.00 0.00 42 1010.1
20260501155252 13 331 1.6 1.6 0.00 0.00 0.00 51 1010.1
20260501154749 13 304 6.4 8.0 0.00 0.00 0.00 47 1010.0
20260501154246 13 16 3.2 3.2 0.00 0.00 0.00 46 1010.0
20260501153744 13 284 6.4 8.0 0.00 0.00 0.00 43 1009.9
20260501153242 13 254 3.2 3.2 0.00 0.00 0.00 46 1010.3
20260501152737 13 296 6.4 8.0 0.00 0.00 0.00 47 1010.1
20260501152234 13 322 4.8 4.8 0.00 0.00 0.00 45 1010.2
20260501151731 13 17 1.6 3.2 0.00 0.00 0.00 49 1010.2
20260501151227 12 300 3.2 3.2 0.00 0.00 0.00 49 1010.1
20260501150724 12 311 3.2 4.8 0.00 0.00 0.00 48 1010.1
20260501150220 12 8 1.6 1.6 0.00 0.00 0.00 48 1010.2
20260501145717 12 307 3.2 4.8 0.00 0.00 0.00 50 1010.4
20260501145215 12 322 3.2 3.2 0.00 0.00 0.00 50 1010.5
20260501144710 12 289 3.2 3.2 0.00 0.00 0.00 48 1010.2
20260501144206 12 9 1.6 1.6 0.00 0.00 0.00 52 1010.3
20260501143702 12 355 3.2 3.2 0.00 0.00 0.00 49 1010.4
20260501143200 12 338 1.6 3.2 0.00 0.00 0.00 53 1010.4
20260501142657 11 355 1.6 1.6 0.00 0.00 0.00 52 1010.3
20260501142152 11 335 3.2 3.2 0.00 0.00 0.00 54 1010.2
20260501141648 11 230 8.0 9.7 0.00 0.00 0.00 54 1010.5